Location: Mason
(37.5237°N, 89.2543°W)
Time: 20:32:42
(UTC+00:00)

CZ-2D R/B - Pass Details

Date: 08 December 2021
Orbit: 519 x 535 km, 97.4° (Epoch: 17 January)

Event Time Altitude Azimuth Distance (km) Brightness Sun altitude
Rises 23:07:57 0° 142° (SE) 2,659 6.7 -6.0°
Reaches altitude 10° 23:10:17 10° 129° (SE) 1,771 5.7 -6.5°
Maximum altitude 23:13:30 26° 72° (ENE) 1,052 4.2 -7.0°
Drops below altitude 10° 23:16:44 10° 14° (NNE) 1,773 5.6 -7.6°
Sets 23:19:04 0° 2° (N) 2,664 6.6 -8.1°
